| time (UTC) | temp F | wind direction | speed MPH | gust MPH | rain 1hr in | rain 24hr in | rain mn in | humidity % | barometer mb |
| 20260901221408 | 69 | 35 | 1.0 | 2.0 | 0.00 | 0.00 | 0.00 | 89 | 1012.7 |
| 20260901220408 | 70 | 73 | 0.0 | 2.0 | 0.00 | 0.00 | 0.00 | 90 | 1012.7 |
| 20260901215908 | 70 | 46 | 0.0 | 3.0 | 0.00 | 0.00 | 0.00 | 91 | 1012.7 |
| 20260901215408 | 69 | 128 | 1.0 | 2.0 | 0.00 | 0.00 | 0.00 | 91 | 1012.7 |
| 20260901214907 | 69 | 80 | 1.0 | 2.0 | 0.00 | 0.00 | 0.00 | 91 | 1012.6 |
| 20260901213908 | 69 | 108 | 1.0 | 2.0 | 0.00 | 0.00 | 0.00 | 92 | 1012.7 |
| 20260901213408 | 68 | 101 | 1.0 | 2.0 | 0.00 | 0.00 | 0.00 | 93 | 1012.8 |
| 20260901212908 | 68 | 83 | 1.0 | 2.0 | 0.00 | 0.00 | 0.00 | 92 | 1012.9 |
| 20260901212408 | 68 | 83 | 1.0 | 3.0 | 0.00 | 0.00 | 0.00 | 91 | 1012.9 |
| 20260901211909 | 68 | 90 | 1.0 | 5.0 | 0.00 | 0.00 | 0.00 | 92 | 1013.0 |
| 20260901210908 | 69 | 58 | 1.0 | 3.0 | 0.00 | 0.00 | 0.00 | 91 | 1013.1 |
| 20260901205907 | 69 | 58 | 1.0 | 3.0 | 0.00 | 0.00 | 0.00 | 90 | 1013.2 |
| 20260901205407 | 70 | 83 | 1.0 | 3.0 | 0.00 | 0.00 | 0.00 | 88 | 1013.2 |
| 20260901204907 | 71 | 64 | 1.0 | 3.0 | 0.00 | 0.00 | 0.00 | 87 | 1013.1 |
| 20260901204407 | 72 | 54 | 1.0 | 3.0 | 0.00 | 0.00 | 0.00 | 86 | 1013.1 |
| 20260901203907 | 72 | 124 | 1.0 | 3.0 | 0.00 | 0.00 | 0.00 | 87 | 1013.2 |
| 20260901203408 | 72 | 124 | 1.0 | 3.0 | 0.00 | 0.00 | 0.00 | 87 | 1013.2 |
| 20260901202908 | 72 | 97 | 1.0 | 3.0 | 0.00 | 0.00 | 0.00 | 88 | 1013.3 |
| 20260901202407 | 71 | 113 | 1.0 | 3.0 | 0.00 | 0.00 | 0.00 | 88 | 1013.3 |
| 20260901201908 | 71 | 120 | 1.0 | 3.0 | 0.00 | 0.00 | 0.00 | 89 | 1013.2 |
| 20260901201408 | 71 | 47 | 1.0 | 3.0 | 0.00 | 0.00 | 0.00 | 88 | 1013.4 |
| 20260901200407 | 71 | 36 | 1.0 | 3.0 | 0.00 | 0.00 | 0.00 | 89 | 1013.5 |
| 20260901195907 | 70 | 54 | 1.0 | 3.0 | 0.00 | 0.00 | 0.00 | 90 | 1013.6 |
| 20260901195413 | 70 | 84 | 1.0 | 2.0 | 0.00 | 0.00 | 0.00 | 90 | 1013.7 |
| 20260901194908 | 70 | 72 | 1.0 | 3.0 | 0.00 | 0.00 | 0.00 | 89 | 1013.7 |
| 20260901194408 | 70 | 31 | 1.0 | 3.0 | 0.00 | 0.00 | 0.00 | 88 | 1013.7 |
| 20260901193913 | 71 | 40 | 1.0 | 3.0 | 0.00 | 0.00 | 0.00 | 87 | 1013.7 |
| 20260901193408 | 71 | 38 | 1.0 | 3.0 | 0.00 | 0.00 | 0.00 | 87 | 1013.7 |
| 20260901192907 | 71 | 40 | 1.0 | 3.0 | 0.00 | 0.00 | 0.00 | 86 | 1013.7 |
| 20260901191908 | 72 | 85 | 1.0 | 2.0 | 0.00 | 0.00 | 0.00 | 88 | 1013.8 |
| 20260901191408 | 71 | 36 | 1.0 | 3.0 | 0.00 | 0.00 | 0.00 | 88 | 1014.0 |
| 20260901190913 | 71 | 45 | 0.0 | 2.0 | 0.00 | 0.00 | 0.00 | 87 | 1013.9 |
| 20260901190408 | 72 | 49 | 1.0 | 3.0 | 0.00 | 0.00 | 0.00 | 86 | 1014.0 |
| 20260901185908 | 72 | 21 | 1.0 | 3.0 | 0.00 | 0.00 | 0.00 | 85 | 1014.0 |
| 20260901184907 | 73 | 27 | 1.0 | 3.0 | 0.00 | 0.00 | 0.00 | 87 | 1014.1 |
| 20260901184407 | 73 | 37 | 0.0 | 2.0 | 0.00 | 0.00 | 0.00 | 86 | 1014.2 |
| 20260901183913 | 72 | 144 | 1.0 | 3.0 | 0.00 | 0.00 | 0.00 | 87 | 1014.2 |
| 20260901183407 | 72 | 94 | 1.0 | 2.0 | 0.00 | 0.00 | 0.00 | 87 | 1014.3 |
| 20260901182908 | 72 | 120 | 1.0 | 2.0 | 0.00 | 0.00 | 0.00 | 86 | 1014.3 |
| 20260901182414 | 72 | 51 | 1.0 | 2.0 | 0.00 | 0.00 | 0.00 | 87 | 1014.4 |
| 20260901181908 | 72 | 39 | 1.0 | 3.0 | 0.00 | 0.00 | 0.00 | 86 | 1014.4 |
| 20260901181407 | 72 | 62 | 1.0 | 2.0 | 0.00 | 0.00 | 0.00 | 88 | 1014.4 |
| 20260901180915 | 72 | 29 | 1.0 | 2.0 | 0.00 | 0.00 | 0.00 | 87 | 1014.4 |
| 20260901180407 | 72 | 56 | 0.0 | 2.0 | 0.00 | 0.00 | 0.00 | 88 | 1014.5 |
| 20260901175414 | 72 | 54 | 0.0 | 3.0 | 0.00 | 0.00 | 0.00 | 87 | 1014.5 |
| 20260901174907 | 72 | 15 | 1.0 | 2.0 | 0.00 | 0.00 | 0.00 | 88 | 1014.5 |
| 20260901174407 | 71 | 20 | 0.0 | 2.0 | 0.00 | 0.00 | 0.00 | 88 | 1014.5 |
| 20260901173914 | 71 | 77 | 0.0 | 2.0 | 0.00 | 0.00 | 0.00 | 90 | 1014.6 |
| 20260901173408 | 71 | 59 | 0.0 | 2.0 | 0.00 | 0.00 | 0.00 | 89 | 1014.7 |
| 20260901172908 | 70 | 28 | 1.0 | 2.0 | 0.00 | 0.00 | 0.00 | 89 | 1014.7 |
| 20260901172413 | 70 | 31 | 1.0 | 2.0 | 0.00 | 0.00 | 0.00 | 89 | 1014.7 |
| 20260901171907 | 70 | 32 | 1.0 | 2.0 | 0.00 | 0.00 | 0.00 | 90 | 1014.7 |
| 20260901171408 | 70 | 8 | 1.0 | 3.0 | 0.00 | 0.00 | 0.00 | 90 | 1014.7 |
| 20260901170914 | 70 | 39 | 1.0 | 2.0 | 0.00 | 0.00 | 0.00 | 90 | 1014.7 |
| 20260901170408 | 69 | 43 | 0.0 | 2.0 | 0.00 | 0.00 | 0.00 | 90 | 1014.7 |
| 20260901165908 | 69 | 31 | 0.0 | 2.0 | 0.00 | 0.00 | 0.00 | 90 | 1014.7 |
| 20260901165414 | 69 | 62 | 1.0 | 2.0 | 0.00 | 0.00 | 0.00 | 91 | 1014.7 |
| 20260901164908 | 69 | 18 | 1.0 | 2.0 | 0.00 | 0.00 | 0.00 | 92 | 1014.6 |
| 20260901164407 | 69 | 53 | 1.0 | 2.0 | 0.00 | 0.00 | 0.00 | 92 | 1014.6 |
| 20260901163914 | 69 | 29 | 1.0 | 2.0 | 0.00 | 0.00 | 0.00 | 93 | 1014.6 |
| 20260901163407 | 69 | 65 | 0.0 | 3.0 | 0.00 | 0.00 | 0.00 | 91 | 1014.5 |
| 20260901162908 | 69 | 26 | 1.0 | 3.0 | 0.00 | 0.00 | 0.00 | 92 | 1014.4 |
| 20260901161907 | 69 | 73 | 0.0 | 2.0 | 0.00 | 0.00 | 0.00 | 95 | 1014.4 |
| 20260901161407 | 69 | 124 | 1.0 | 2.0 | 0.00 | 0.00 | 0.00 | 95 | 1014.5 |
| 20260901160907 | 68 | 42 | 1.0 | 3.0 | 0.00 | 0.00 | 0.00 | 96 | 1014.5 |
| 20260901160407 | 68 | 91 | 1.0 | 2.0 | 0.00 | 0.00 | 0.00 | 97 | 1014.5 |
| 20260901155908 | 67 | 111 | 1.0 | 2.0 | 0.00 | 0.00 | 0.00 | 96 | 1014.5 |
| 20260901155414 | 67 | 46 | 0.0 | 2.0 | 0.00 | 0.00 | 0.00 | 97 | 1014.5 |
| 20260901154908 | 67 | 41 | 0.0 | 2.0 | 0.00 | 0.00 | 0.00 | 97 | 1014.6 |
| 20260901153914 | 66 | 36 | 1.0 | 2.0 | 0.00 | 0.00 | 0.00 | 97 | 1014.5 |
| 20260901153407 | 67 | 55 | 1.0 | 2.0 | 0.00 | 0.00 | 0.00 | 97 | 1014.5 |
| 20260901152407 | 67 | 40 | 1.0 | 2.0 | 0.00 | 0.00 | 0.00 | 97 | 1014.5 |
| 20260901151907 | 67 | 49 | 0.0 | 2.0 | 0.00 | 0.00 | 0.00 | 97 | 1014.6 |
| 20260901151407 | 66 | 105 | 0.0 | 1.0 | 0.00 | 0.00 | 0.00 | 97 | 1014.8 |
| 20260901150907 | 66 | 97 | 0.0 | 2.0 | 0.00 | 0.00 | 0.00 | 97 | 1014.9 |
| 20260901150407 | 66 | 38 | 0.0 | 2.0 | 0.00 | 0.00 | 0.00 | 97 | 1014.9 |
| 20260901145908 | 66 | 57 | 0.0 | 1.0 | 0.00 | 0.00 | 0.00 | 97 | 1014.9 |
| 20260901145407 | 66 | 64 | 0.0 | 2.0 | 0.00 | 0.00 | 0.00 | 97 | 1014.8 |
| 20260901144908 | 66 | 55 | 0.0 | 2.0 | 0.00 | 0.00 | 0.00 | 98 | 1014.8 |
| 20260901144407 | 66 | 62 | 1.0 | 2.0 | 0.00 | 0.00 | 0.00 | 97 | 1014.8 |
| 20260901143907 | 66 | 50 | 1.0 | 2.0 | 0.00 | 0.00 | 0.00 | 97 | 1014.8 |
| 20260901143407 | 66 | 58 | 1.0 | 2.0 | 0.00 | 0.00 | 0.00 | 97 | 1014.7 |
| 20260901142407 | 66 | 135 | 1.0 | 2.0 | 0.00 | 0.00 | 0.00 | 97 | 1014.7 |
| 20260901141907 | 66 | 77 | 1.0 | 2.0 | 0.00 | 0.00 | 0.00 | 97 | 1014.8 |
| 20260901140407 | 66 | 28 | 1.0 | 2.0 | 0.00 | 0.01 | 0.00 | 98 | 1014.5 |
| 20260901135907 | 67 | 58 | 1.0 | 2.0 | 0.00 | 0.01 | 0.00 | 98 | 1014.6 |
| 20260901135407 | 67 | 35 | 1.0 | 2.0 | 0.00 | 0.02 | 0.00 | 98 | 1014.6 |
| 20260901134907 | 67 | 73 | 1.0 | 2.0 | 0.00 | 0.02 | 0.00 | 98 | 1014.6 |
| 20260901134407 | 67 | 171 | 1.0 | 2.0 | 0.00 | 0.03 | 0.00 | 98 | 1014.6 |
| 20260901133907 | 66 | 52 | 1.0 | 2.0 | 0.00 | 0.03 | 0.00 | 98 | 1014.5 |
| 20260901133407 | 66 | 82 | 1.0 | 2.0 | 0.00 | 0.03 | 0.00 | 98 | 1014.5 |
| 20260901132407 | 66 | 133 | 0.0 | 2.0 | 0.00 | 0.04 | 0.00 | 98 | 1014.5 |
| 20260901131907 | 66 | 146 | 1.0 | 2.0 | 0.00 | 0.04 | 0.00 | 98 | 1014.5 |
| 20260901131409 | 66 | 147 | 0.0 | 2.0 | 0.00 | 0.04 | 0.00 | 98 | 1014.6 |
| 20260901130908 | 66 | 120 | 1.0 | 2.0 | 0.00 | 0.04 | 0.00 | 98 | 1014.4 |
| 20260901130407 | 66 | 116 | 0.0 | 2.0 | 0.00 | 0.04 | 0.00 | 98 | 1014.4 |
| 20260901125407 | 66 | 93 | 0.0 | 2.0 | 0.00 | 0.04 | 0.00 | 98 | 1014.4 |
| 20260901124414 | 66 | 119 | 0.0 | 2.0 | 0.00 | 0.04 | 0.00 | 98 | 1014.3 |
| 20260901123907 | 66 | 104 | 1.0 | 2.0 | 0.00 | 0.04 | 0.00 | 98 | 1014.3 |
| 20260901123407 | 65 | 88 | 1.0 | 2.0 | 0.00 | 0.04 | 0.00 | 98 | 1014.3 |
| 20260901122407 | 65 | 157 | 1.0 | 2.0 | 0.00 | 0.04 | 0.00 | 98 | 1014.2 |
| 20260901121908 | 65 | 87 | 0.0 | 2.0 | 0.00 | 0.04 | 0.00 | 98 | 1014.1 |
| 20260901121414 | 65 | 151 | 0.0 | 2.0 | 0.00 | 0.04 | 0.00 | 98 | 1014.1 |
| 20260901120907 | 65 | 106 | 0.0 | 1.0 | 0.00 | 0.04 | 0.00 | 98 | 1014.1 |
| 20260901120407 | 65 | 85 | 0.0 | 1.0 | 0.00 | 0.04 | 0.00 | 98 | 1014.1 |
| 20260901115914 | 65 | 117 | 0.0 | 2.0 | 0.00 | 0.04 | 0.00 | 98 | 1014.1 |
| 20260901115407 | 65 | 122 | 0.0 | 1.0 | 0.00 | 0.04 | 0.00 | 98 | 1014.1 |
| 20260901114907 | 65 | 103 | 0.0 | 2.0 | 0.00 | 0.04 | 0.00 | 98 | 1014.1 |
| 20260901113907 | 65 | 105 | 0.0 | 2.0 | 0.00 | 0.04 | 0.00 | 98 | 1014.1 |
| 20260901113407 | 65 | 93 | 0.0 | 1.0 | 0.00 | 0.04 | 0.00 | 97 | 1014.0 |
| 20260901112913 | 65 | 140 | 0.0 | 1.0 | 0.00 | 0.04 | 0.00 | 97 | 1014.1 |
| 20260901111908 | 65 | 112 | 0.0 | 1.0 | 0.00 | 0.04 | 0.00 | 97 | 1014.1 |
| 20260901111407 | 65 | 70 | 0.0 | 1.0 | 0.00 | 0.04 | 0.00 | 97 | 1014.0 |
| 20260901110907 | 65 | 131 | 0.0 | 1.0 | 0.00 | 0.04 | 0.00 | 97 | 1013.9 |
| 20260901110407 | 65 | 84 | 0.0 | 1.0 | 0.00 | 0.04 | 0.00 | 97 | 1013.8 |
| 20260901105914 | 65 | 97 | 0.0 | 0.0 | 0.00 | 0.04 | 0.00 | 97 | 1013.8 |
| 20260901105407 | 65 | 134 | 0.0 | 1.0 | 0.00 | 0.04 | 0.00 | 97 | 1013.8 |
| 20260901104907 | 65 | 86 | 0.0 | 1.0 | 0.00 | 0.04 | 0.00 | 97 | 1013.8 |
| 20260901103907 | 65 | 89 | 0.0 | 0.0 | 0.00 | 0.04 | 0.00 | 97 | 1013.8 |
| 20260901102913 | 65 | 66 | 0.0 | 1.0 | 0.00 | 0.04 | 0.00 | 97 | 1013.7 |
| 20260901101907 | 65 | 93 | 0.0 | 0.0 | 0.00 | 0.04 | 0.00 | 97 | 1013.7 |
| 20260901101407 | 65 | 147 | 0.0 | 1.0 | 0.00 | 0.04 | 0.00 | 97 | 1013.7 |
| 20260901100907 | 65 | 126 | 0.0 | 1.0 | 0.00 | 0.04 | 0.00 | 97 | 1013.7 |
| 20260901100407 | 65 | 94 | 0.0 | 0.0 | 0.00 | 0.04 | 0.00 | 97 | 1013.6 |
| 20260901094907 | 65 | 114 | 0.0 | 0.0 | 0.00 | 0.04 | 0.00 | 97 | 1013.5 |
| 20260901094407 | 65 | 97 | 0.0 | 1.0 | 0.00 | 0.04 | 0.00 | 97 | 1013.5 |
| 20260901093907 | 65 | 123 | 0.0 | 0.0 | 0.00 | 0.04 | 0.00 | 97 | 1013.5 |
| 20260901093407 | 65 | 82 | 0.0 | 0.0 | 0.00 | 0.04 | 0.00 | 97 | 1013.5 |
| 20260901092407 | 65 | 115 | 0.0 | 1.0 | 0.00 | 0.04 | 0.00 | 97 | 1013.4 |
| 20260901091407 | 65 | 175 | 0.0 | 1.0 | 0.00 | 0.04 | 0.00 | 97 | 1013.4 |
| 20260901090407 | 65 | 132 | 0.0 | 1.0 | 0.00 | 0.04 | 0.00 | 97 | 1013.3 |
| 20260901085907 | 65 | 92 | 0.0 | 1.0 | 0.00 | 0.04 | 0.00 | 97 | 1013.3 |
| 20260901085407 | 65 | 103 | 0.0 | 1.0 | 0.00 | 0.04 | 0.00 | 97 | 1013.3 |
| 20260901084907 | 65 | 82 | 0.0 | 1.0 | 0.00 | 0.04 | 0.00 | 97 | 1013.3 |
| 20260901084407 | 65 | 100 | 0.0 | 1.0 | 0.00 | 0.04 | 0.00 | 97 | 1013.4 |
| 20260901083907 | 65 | 141 | 0.0 | 1.0 | 0.00 | 0.04 | 0.00 | 97 | 1013.4 |
| 20260901083407 | 65 | 86 | 0.0 | 1.0 | 0.00 | 0.04 | 0.00 | 97 | 1013.4 |
| 20260901082907 | 65 | 102 | 0.0 | 1.0 | 0.00 | 0.04 | 0.00 | 97 | 1013.3 |
| 20260901082407 | 65 | 107 | 0.0 | 1.0 | 0.00 | 0.04 | 0.00 | 97 | 1013.3 |
| 20260901080907 | 65 | 99 | 0.0 | 1.0 | 0.00 | 0.04 | 0.00 | 98 | 1013.2 |
| 20260901080407 | 65 | 109 | 0.0 | 1.0 | 0.00 | 0.04 | 0.00 | 98 | 1013.1 |
| 20260901075907 | 65 | 125 | 0.0 | 1.0 | 0.00 | 0.04 | 0.00 | 97 | 1013.1 |
| 20260901075406 | 65 | 92 | 0.0 | 1.0 | 0.00 | 0.04 | 0.00 | 97 | 1013.0 |
| 20260901074907 | 65 | 107 | 0.0 | 1.0 | 0.00 | 0.04 | 0.00 | 97 | 1013.0 |
| 20260901074407 | 65 | 98 | 0.0 | 0.0 | 0.00 | 0.04 | 0.00 | 97 | 1012.9 |
| 20260901073913 | 65 | 105 | 0.0 | 0.0 | 0.00 | 0.04 | 0.00 | 97 | 1012.8 |
| 20260901073407 | 65 | 98 | 0.0 | 0.0 | 0.00 | 0.04 | 0.00 | 97 | 1012.8 |
| 20260901072907 | 65 | 190 | 0.0 | 2.0 | 0.00 | 0.04 | 0.00 | 97 | 1012.8 |
| 20260901072409 | 65 | 109 | 0.0 | 0.0 | 0.00 | 0.04 | 0.00 | 97 | 1012.8 |
| 20260901071907 | 65 | 185 | 0.0 | 1.0 | 0.00 | 0.04 | 0.00 | 97 | 1012.8 |
| 20260901071407 | 65 | 112 | 0.0 | 1.0 | 0.00 | 0.04 | 0.00 | 98 | 1012.8 |
| 20260901070914 | 65 | 146 | 0.0 | 1.0 | 0.00 | 0.04 | 0.00 | 97 | 1012.8 |
| 20260901070407 | 65 | 119 | 0.0 | 1.0 | 0.00 | 0.04 | 0.00 | 97 | 1012.7 |
| 20260901065906 | 64 | 125 | 0.0 | 1.0 | 0.00 | 0.04 | 0.00 | 97 | 1012.6 |
| 20260901065413 | 64 | 130 | 0.0 | 1.0 | 0.00 | 0.04 | 0.00 | 97 | 1012.7 |
| 20260901064908 | 64 | 146 | 0.0 | 2.0 | 0.00 | 0.04 | 0.00 | 97 | 1012.6 |
| 20260901064406 | 64 | 94 | 0.0 | 1.0 | 0.00 | 0.04 | 0.00 | 97 | 1012.5 |
| 20260901062407 | 64 | 84 | 0.0 | 1.0 | 0.00 | 0.04 | 0.00 | 97 | 1012.5 |
| 20260901061906 | 64 | 86 | 0.0 | 1.0 | 0.00 | 0.04 | 0.00 | 97 | 1012.5 |
| 20260901061407 | 64 | 111 | 0.0 | 1.0 | 0.00 | 0.04 | 0.00 | 97 | 1012.5 |
| 20260901060913 | 64 | 120 | 0.0 | 1.0 | 0.00 | 0.04 | 0.00 | 97 | 1012.5 |
| 20260901060407 | 64 | 119 | 0.0 | 1.0 | 0.00 | 0.04 | 0.00 | 97 | 1012.5 |
| 20260901055407 | 64 | 99 | 0.0 | 1.0 | 0.00 | 0.04 | 0.00 | 97 | 1012.4 |
| 20260901054907 | 64 | 108 | 0.0 | 1.0 | 0.00 | 0.04 | 0.00 | 97 | 1012.5 |
| 20260901054406 | 64 | 58 | 0.0 | 1.0 | 0.00 | 0.04 | 0.00 | 97 | 1012.5 |
| 20260901053913 | 64 | 106 | 0.0 | 1.0 | 0.00 | 0.04 | 0.00 | 97 | 1012.5 |
| 20260901053406 | 64 | 92 | 0.0 | 1.0 | 0.00 | 0.04 | 0.00 | 97 | 1012.6 |
| 20260901052413 | 64 | 126 | 0.0 | 1.0 | 0.00 | 0.04 | 0.00 | 97 | 1012.5 |
| 20260901051907 | 64 | 124 | 0.0 | 0.0 | 0.00 | 0.04 | 0.00 | 97 | 1012.6 |
| 20260901051407 | 64 | 91 | 0.0 | 1.0 | 0.00 | 0.04 | 0.00 | 97 | 1012.6 |
| 20260901050913 | 63 | 131 | 0.0 | 1.0 | 0.00 | 0.04 | 0.00 | 97 | 1012.5 |
| 20260901050406 | 63 | 106 | 0.0 | 1.0 | 0.00 | 0.04 | 0.00 | 97 | 1012.5 |
| 20260901045907 | 63 | 119 | 0.0 | 1.0 | 0.00 | 0.04 | 0.00 | 97 | 1012.4 |
| 20260901045413 | 63 | 127 | 0.0 | 1.0 | 0.00 | 0.04 | 0.00 | 97 | 1012.5 |
| 20260901044906 | 64 | 91 | 0.0 | 1.0 | 0.00 | 0.04 | 0.00 | 97 | 1012.7 |
| 20260901044407 | 64 | 124 | 0.0 | 0.0 | 0.00 | 0.04 | 0.00 | 97 | 1012.7 |
| 20260901043913 | 64 | 113 | 0.0 | 0.0 | 0.00 | 0.04 | 0.00 | 97 | 1012.7 |
| 20260901043406 | 64 | 192 | 0.0 | 1.0 | 0.00 | 0.04 | 0.00 | 97 | 1012.7 |
| 20260901042907 | 64 | 69 | 0.0 | 1.0 | 0.00 | 0.04 | 0.00 | 97 | 1012.7 |
| 20260901042406 | 64 | 65 | 0.0 | 1.0 | 0.00 | 0.04 | 0.00 | 97 | 1012.8 |
| 20260901041406 | 64 | 138 | 0.0 | 1.0 | 0.00 | 0.04 | 0.00 | 97 | 1012.8 |
| 20260901040906 | 64 | 138 | 0.0 | 1.0 | 0.00 | 0.04 | 0.00 | 97 | 1012.9 |
| 20260901040406 | 64 | 90 | 0.0 | 1.0 | 0.00 | 0.04 | 0.00 | 97 | 1012.9 |
| 20260901035906 | 64 | 133 | 0.0 | 1.0 | 0.00 | 0.04 | 0.04 | 97 | 1012.8 |
| 20260901035407 | 64 | 68 | 0.0 | 1.0 | 0.00 | 0.04 | 0.04 | 97 | 1012.8 |
| 20260901034907 | 64 | 105 | 0.0 | 1.0 | 0.00 | 0.04 | 0.04 | 97 | 1012.8 |
| 20260901034407 | 64 | 118 | 0.0 | 1.0 | 0.00 | 0.04 | 0.04 | 97 | 1012.7 |
| 20260901033906 | 64 | 106 | 0.0 | 1.0 | 0.00 | 0.04 | 0.04 | 97 | 1012.6 |
| 20260901033407 | 64 | 107 | 0.0 | 1.0 | 0.00 | 0.04 | 0.04 | 97 | 1012.6 |
| 20260901032408 | 64 | 100 | 0.0 | 1.0 | 0.00 | 0.04 | 0.04 | 97 | 1012.4 |
| 20260901031907 | 64 | 120 | 0.0 | 1.0 | 0.00 | 0.04 | 0.04 | 97 | 1012.5 |
| 20260901030906 | 64 | 115 | 0.0 | 1.0 | 0.00 | 0.04 | 0.04 | 97 | 1012.4 |
| 20260901030406 | 64 | 96 | 0.0 | 1.0 | 0.00 | 0.04 | 0.04 | 97 | 1012.4 |
| 20260901025907 | 64 | 54 | 0.0 | 2.0 | 0.00 | 0.04 | 0.04 | 97 | 1012.3 |
| 20260901025406 | 64 | 106 | 0.0 | 1.0 | 0.00 | 0.04 | 0.04 | 97 | 1012.4 |
| 20260901024908 | 64 | 78 | 0.0 | 1.0 | 0.00 | 0.04 | 0.04 | 97 | 1012.5 |
| 20260901023907 | 64 | 99 | 0.0 | 1.0 | 0.00 | 0.04 | 0.04 | 97 | 1012.6 |
| 20260901023406 | 64 | 99 | 0.0 | 1.0 | 0.00 | 0.04 | 0.04 | 97 | 1012.6 |
| 20260901022906 | 64 | 104 | 0.0 | 1.0 | 0.00 | 0.04 | 0.04 | 97 | 1012.7 |
| 20260901022407 | 64 | 87 | 0.0 | 1.0 | 0.00 | 0.04 | 0.04 | 97 | 1012.5 |
| 20260901021907 | 64 | 75 | 0.0 | 1.0 | 0.00 | 0.04 | 0.04 | 97 | 1012.6 |
| 20260901021406 | 64 | 110 | 0.0 | 1.0 | 0.00 | 0.04 | 0.04 | 97 | 1012.6 |
| 20260901020907 | 64 | 108 | 0.0 | 0.0 | 0.00 | 0.04 | 0.04 | 97 | 1012.5 |
| 20260901020406 | 64 | 102 | 0.0 | 1.0 | 0.00 | 0.04 | 0.04 | 97 | 1012.6 |
| 20260901015907 | 64 | 133 | 0.0 | 1.0 | 0.00 | 0.04 | 0.04 | 96 | 1012.5 |
| 20260901014907 | 64 | 96 | 0.0 | 1.0 | 0.00 | 0.04 | 0.04 | 96 | 1012.5 |
| 20260901014407 | 64 | 77 | 0.0 | 1.0 | 0.00 | 0.04 | 0.04 | 97 | 1012.7 |
| 20260901013906 | 64 | 106 | 0.0 | 1.0 | 0.00 | 0.04 | 0.04 | 97 | 1012.7 |
| 20260901013407 | 64 | 179 | 0.0 | 2.0 | 0.00 | 0.04 | 0.04 | 96 | 1012.7 |
| 20260901012907 | 64 | 87 | 0.0 | 1.0 | 0.00 | 0.04 | 0.04 | 96 | 1012.6 |
| 20260901011907 | 64 | 150 | 0.0 | 1.0 | 0.00 | 0.04 | 0.04 | 96 | 1012.5 |
| 20260901010907 | 64 | 82 | 0.0 | 1.0 | 0.00 | 0.04 | 0.04 | 96 | 1012.4 |
| 20260901010406 | 64 | 82 | 0.0 | 0.0 | 0.00 | 0.04 | 0.04 | 96 | 1012.3 |
| 20260901005907 | 64 | 94 | 0.0 | 0.0 | 0.00 | 0.04 | 0.04 | 96 | 1012.3 |
| 20260901005406 | 64 | 87 | 0.0 | 1.0 | 0.00 | 0.04 | 0.04 | 96 | 1012.2 |
| 20260901004407 | 64 | 63 | 0.0 | 1.0 | 0.00 | 0.04 | 0.04 | 96 | 1012.2 |
| 20260901003906 | 65 | 58 | 0.0 | 1.0 | 0.00 | 0.04 | 0.04 | 97 | 1012.1 |
| 20260901002906 | 65 | 116 | 1.0 | 2.0 | 0.00 | 0.04 | 0.04 | 97 | 1012.0 |
| 20260901002407 | 64 | 80 | 0.0 | 2.0 | 0.00 | 0.04 | 0.04 | 97 | 1011.9 |
| 20260901001907 | 64 | 92 | 0.0 | 2.0 | 0.00 | 0.04 | 0.04 | 96 | 1012.0 |
| 20260901000407 | 65 | 110 | 1.0 | 2.0 | 0.00 | 0.04 | 0.04 | 96 | 1012.0 |
| 20260831235906 | 65 | 111 | 1.0 | 2.0 | 0.00 | 0.04 | 0.04 | 96 | 1012.0 |
| 20260831235407 | 65 | 111 | 1.0 | 2.0 | 0.00 | 0.04 | 0.04 | 96 | 1011.9 |
| 20260831234907 | 65 | 112 | 1.0 | 2.0 | 0.00 | 0.04 | 0.04 | 96 | 1011.9 |
| 20260831234406 | 65 | 120 | 1.0 | 3.0 | 0.00 | 0.04 | 0.04 | 96 | 1011.9 |
| 20260831233906 | 65 | 110 | 1.0 | 3.0 | 0.00 | 0.04 | 0.04 | 96 | 1011.9 |
| 20260831233407 | 64 | 115 | 1.0 | 2.0 | 0.00 | 0.04 | 0.04 | 96 | 1011.9 |
| 20260831232906 | 64 | 97 | 1.0 | 2.0 | 0.00 | 0.04 | 0.04 | 96 | 1011.9 |
| 20260831232407 | 64 | 101 | 1.0 | 3.0 | 0.00 | 0.04 | 0.04 | 95 | 1011.9 |
| 20260831231907 | 64 | 68 | 1.0 | 2.0 | 0.00 | 0.04 | 0.04 | 96 | 1011.9 |
| 20260831231407 | 64 | 115 | 1.0 | 2.0 | 0.00 | 0.04 | 0.04 | 95 | 1012.0 |
| 20260831230907 | 64 | 91 | 0.0 | 2.0 | 0.00 | 0.04 | 0.04 | 95 | 1011.9 |
| 20260831230406 | 64 | 97 | 1.0 | 2.0 | 0.00 | 0.04 | 0.04 | 95 | 1011.9 |
| 20260831225907 | 65 | 83 | 1.0 | 2.0 | 0.00 | 0.04 | 0.04 | 95 | 1012.0 |
| 20260831225422 | 65 | 82 | 1.0 | 2.0 | 0.00 | 0.04 | 0.04 | 95 | 1011.9 |
| 20260831224906 | 65 | 109 | 1.0 | 2.0 | 0.00 | 0.04 | 0.04 | 95 | 1012.0 |
| 20260831224407 | 65 | 111 | 0.0 | 2.0 | 0.00 | 0.04 | 0.04 | 94 | 1012.2 |
| 20260831223406 | 66 | 38 | 1.0 | 3.0 | 0.00 | 0.04 | 0.04 | 94 | 1012.0 |
| 20260831222907 | 66 | 69 | 1.0 | 2.0 | 0.00 | 0.04 | 0.04 | 95 | 1012.0 |
| 20260831222407 | 66 | 66 | 1.0 | 3.0 | 0.00 | 0.04 | 0.04 | 94 | 1012.1 |
| 20260831221907 | 67 | 41 | 1.0 | 2.0 | 0.00 | 0.04 | 0.04 | 94 | 1012.1 |